DIAPDIBK

Guest
Details From DIAP - Abidjan Felix Houphouet Boigny Intl
To DIBK - BOUAKE
Flight Number -
Tags generated
Created
Modified
Stats Distance 164 nm / 303 km
Max Altitude 16,700 ft / 5,090 m
Waypoints 3
Social Downloads 2
Likes 0
Share VATSIM

Download

Looking for another format? Having issues loading an existing format? Contact us
Advertisement - Login to hide

Notes

Basic altitude profile: - Ascent Rate: 2500ft/min - Ascent Speed: 250kts - Cruise Altitude: 35000ft - Cruise Speed: 420kts - Descent Rate: 1500ft/min - Descent Speed: 250kts Options: - Use NATs: yes - Use PACOTS: yes - Use low airways: yes - Use high airways: yes

Route

DIAP DEGAS DIBK

ID Type Via Altitude Latitude Longitude Leg Dist Tot Dist Heading (true) Name
O DIAP APT - 0 ft / 0 m 5.26139˚ -3.92630˚ - 0 nm - Abidjan Felix Houphouet Boigny Intl
DEGAS FIX - 16,700 ft / 5,090 m 6.49111˚ -4.48556˚ 81 nm 81 nm 336° / 336° -
O DIBK APT - 0 ft / 0 m 7.73880˚ -5.07367˚ 82 nm 163 nm 335° / 335° BOUAKE

Altitude Profile

Advertisement - Login to hide

Weather


0- 5 10 15 20 25 30 35+ Temperature / ° C

Clouds and Precipitation
Forecast for 2018-05-22 00:00 UTC. Updated 6 hours ago

Ground ~20,000 ft ~40,000 ft Winds

DIAP

Details ICAO DIAP (ABJ)
Name Abidjan Felix Houphouet Boigny Intl
Region Côte d'Ivoire
Timezone Africa/Abidjan (UTC+0.0)
Stats Elevation 21 ft / 6 m (AMSL)
Location 5.261386° -3.926296°
Runways 1
Magnetic Variation 4.636° W

METAR

DIAP 220430Z 26004KT 9999 FEW012 27/25 Q1010 NOSIG

Decode

TAF

TAF DIAP 212300Z 2200/2306 20005KT 9999 SCT012 PROB30 TEMPO 2208/2212 BKN012 FEW020CB TEMPO 2215/2220 TS BKN012 FEW020CB

Decode

Departure Runways

ID Width Length Bearing (true) Bearing (mag) Surface Threshold Offset Overrun Length
03 164 ft / 50 m 9,889 ft / 3,014 m 22.27° 26.91° Asphalt 0 ft / 0 m 197 ft / 60 m
21 164 ft / 50 m 9,889 ft / 3,014 m 202.27° 206.91° Asphalt 0 ft / 0 m 328 ft / 100 m

DIBK

Details ICAO DIBK (BYK)
Name BOUAKE
Region Côte d'Ivoire
Timezone Africa/Abidjan (UTC+0.0)
Stats Elevation 1,230 ft / 375 m (AMSL)
Location 7.738800° -5.073666°
Runways 1
Magnetic Variation 4.313° W

METAR

DIBK 220400Z 18004KT CAVOK 24/24 Q1014 NOSIG

Decode

TAF

TAF DIBK 212300Z 2200/2224 23004KT 9999 SCT013 TEMPO 2215/2219 TS BKN013 FEW030CB

Decode

Destination Runways

ID Width Length Bearing (true) Bearing (mag) Surface Threshold Offset Overrun Length
03 148 ft / 45 m 10,872 ft / 3,314 m 24.08° 28.39° Asphalt 0 ft / 0 m 951 ft / 290 m
21 148 ft / 45 m 10,872 ft / 3,314 m 204.08° 208.39° Asphalt 0 ft / 0 m 951 ft / 290 m

Popular Alternatives